Phoenix-Mesa Gateway Airport, AZ

3:59 AM MST on May 25, 2017 (GMT -0700)
Phoenix-Mesa Gateway Airport

Weather History for KIWA - November, 2013

Change the Weather History Date:

Thursday, November 7, 2013

  Actual Average Record
Temperature  
Mean Temperature 67 °F -  
Max Temperature 84 °F 74 °F 89 °F (2007)
Min Temperature 50 °F 50 °F 41 °F (2000)
Cooling Degree Days 2    
Growing Degree Days 17 (Base 50)    
Moisture  
Dew Point 18 °F    
Average Humidity 21    
Maximum Humidity 35    
Minimum Humidity 6    
Precipitation  
Precipitation 0.00 in - - ()
Sea Level Pressure  
Sea Level Pressure 30.13 in    
Wind  
Wind Speed 6 mph (East)    
Max Wind Speed 14 mph    
Max Gust Speed 18 mph    
Visibility 12 miles    
Events      
Averages and records for this station are not official NWS values.
T = Trace of Precipitation, MM = Missing Value Source: NWS Daily Summary

Daily Weather History Graph

Daily Weather History Graph

Search for Another Location

Airport or City:

Trip Planner

Search our weather history database for the weather conditions in past years. The results will help you decide how hot, cold, wet, or windy it might be!

Date:

Astronomy

Nov. 07, 2013 Rise Set
Actual Time 6:50 AM MST 5:29 PM MST
Civil Twilight 6:24 AM MST 5:55 PM MST
Nautical Twilight 5:55 AM MST 6:25 PM MST
Astronomical Twilight 5:26 AM MST 6:54 PM MST
Moon 10:59 AM MST (11/7) 9:47 PM MST (11/7)
Length of Visible Light 11h 30m
Length of Day
10h 38m
Waxing Crescent, 23% of the Moon is Illuminated
Nov 7
Waxing Crescent
Nov 9
First Quarter
Nov 17
Full
Nov 25
Last Quarter
Dec 2
New

Hourly Weather History & Observations

Time (MST) Temp. Dew Point Humidity Pressure Visibility Wind Dir Wind Speed Gust Speed Precip Events Conditions
12:15 AM 51.8 °F 17.6 °F 26% 30.20 in 10.0 mi ESE 6.9 mph - N/A   Clear
12:35 AM 51.8 °F 15.8 °F 24% 30.19 in 10.0 mi East 6.9 mph - N/A   Clear
12:55 AM 51.8 °F 14.0 °F 22% 30.19 in 10.0 mi ENE 10.4 mph - N/A   Clear
1:15 AM 57.2 °F 12.2 °F 17% 30.19 in 10.0 mi ENE 10.4 mph - N/A   Clear
1:35 AM 57.2 °F 12.2 °F 17% 30.19 in 10.0 mi East 9.2 mph - N/A   Clear
1:55 AM 55.4 °F 12.2 °F 18% 30.18 in 10.0 mi ENE 9.2 mph - N/A   Clear
2:15 AM 55.4 °F 12.2 °F 18% 30.18 in 10.0 mi East 6.9 mph - N/A   Clear
2:35 AM 51.8 °F 14.0 °F 22% 30.18 in 10.0 mi East 5.8 mph - N/A   Clear
2:55 AM 51.8 °F 15.8 °F 24% 30.18 in 10.0 mi ENE 8.1 mph - N/A   Clear
3:15 AM 51.8 °F 14.0 °F 22% 30.18 in 10.0 mi East 6.9 mph - N/A   Clear
3:35 AM 51.8 °F 15.8 °F 24% 30.18 in 10.0 mi East 5.8 mph - N/A   Clear
3:55 AM 50.0 °F 21.2 °F 32% 30.18 in 10.0 mi Calm Calm - N/A   Clear
4:15 AM 53.6 °F 17.6 °F 24% 30.18 in 10.0 mi Calm Calm - N/A   Clear
4:35 AM 50.0 °F 23.0 °F 35% 30.19 in 10.0 mi ENE 4.6 mph - N/A   Clear
4:47 AM 50.0 °F 19.4 °F 30% 30.19 in 20.0 mi NE 3.5 mph - N/A   Clear
4:55 AM 50.0 °F 19.4 °F 30% 30.19 in 10.0 mi NE 8.1 mph - N/A   Clear
5:15 AM 55.4 °F 14.0 °F 20% 30.19 in 10.0 mi ENE 5.8 mph - N/A   Clear
5:47 AM 53.6 °F 19.4 °F 26% 30.20 in 20.0 mi East 3.5 mph - N/A   Clear
6:47 AM 53.6 °F 19.4 °F 26% 30.21 in 20.0 mi East 4.6 mph - N/A   Partly Cloudy
7:47 AM 53.6 °F 21.2 °F 28% 30.22 in 45.0 mi ESE 5.8 mph - N/A   Partly Cloudy
8:47 AM 62.6 °F 21.2 °F 20% 30.23 in 45.0 mi Calm Calm - N/A   Partly Cloudy
10:47 AM 73.4 °F 15.8 °F 11% 30.21 in 45.0 mi Variable 4.6 mph - N/A   Partly Cloudy
11:48 AM 78.8 °F 10.4 °F 7% 30.17 in 45.0 mi Variable 3.5 mph - N/A   Partly Cloudy
12:47 PM 80.6 °F 6.8 °F 6% 30.14 in 45.0 mi East 6.9 mph - N/A   Partly Cloudy
1:47 PM 80.6 °F 6.8 °F 6% 30.10 in 45.0 mi SE 13.8 mph - N/A   Partly Cloudy
2:47 PM 84.2 °F 12.2 °F 7% 30.07 in 45.0 mi East 9.2 mph 18.4 mph N/A   Partly Cloudy
3:47 PM 84.2 °F 30.2 °F 14% 30.05 in 45.0 mi East 9.2 mph - N/A   Partly Cloudy
4:47 PM 80.6 °F 14.0 °F 8% 30.05 in 45.0 mi ESE 5.8 mph - N/A   Partly Cloudy
5:47 PM 78.8 °F 14.0 °F 9% 30.05 in 20.0 mi ENE 3.5 mph - N/A   Partly Cloudy
6:47 PM 71.6 °F 14.0 °F 11% 30.05 in 20.0 mi NE 5.8 mph - N/A   Partly Cloudy
7:47 PM 66.2 °F 10.4 °F 11% 30.06 in 20.0 mi NE 5.8 mph - N/A   Clear
7:55 PM 66.2 °F 10.4 °F 11% 30.06 in 10.0 mi NNE 4.6 mph - N/A   Clear
8:15 PM 64.4 °F 10.4 °F 12% 30.05 in 10.0 mi ENE 4.6 mph - N/A   Clear
8:35 PM 60.8 °F 24.8 °F 25% 30.05 in 10.0 mi ESE 3.5 mph - N/A   Clear
8:47 PM 60.8 °F 26.6 °F 27% 30.06 in 20.0 mi SE 4.6 mph - N/A   Clear
8:55 PM 57.2 °F 26.6 °F 31% 30.06 in 10.0 mi Calm Calm - N/A   Clear
9:15 PM 60.8 °F 21.2 °F 22% 30.06 in 10.0 mi South 3.5 mph - N/A   Clear
9:35 PM 60.8 °F 23.0 °F 23% 30.06 in 10.0 mi Calm Calm - N/A   Clear
9:47 PM 60.8 °F 21.2 °F 22% 30.07 in 20.0 mi ESE 3.5 mph - N/A   Clear
9:55 PM 62.6 °F 21.2 °F 20% 30.07 in 10.0 mi Calm Calm - N/A   Clear
10:15 PM 60.8 °F 23.0 °F 23% 30.07 in 10.0 mi Calm Calm - N/A   Clear
10:35 PM 57.2 °F 26.6 °F 31% 30.07 in 10.0 mi Calm Calm - N/A   Clear
10:47 PM 57.2 °F 26.6 °F 31% 30.07 in 20.0 mi South 3.5 mph - N/A   Clear
10:55 PM 57.2 °F 28.4 °F 33% 30.07 in 7.0 mi Calm Calm - N/A   Clear
11:15 PM 57.2 °F 26.6 °F 31% 30.07 in 10.0 mi Calm Calm - N/A   Clear
11:35 PM 57.2 °F 26.6 °F 31% 30.07 in 10.0 mi SSE 3.5 mph - N/A   Clear
11:47 PM 57.2 °F 24.8 °F 29% 30.07 in 20.0 mi Calm Calm - N/A   Clear
11:55 PM 57.2 °F 24.8 °F 29% 30.07 in 10.0 mi SSE 3.5 mph - N/A   Clear